Showing default

COSMOS 2579, 61730

Orbit data source: Space-Track

COSMOS 2579, 61730 is a payload satellite owned by VVKO VKS (CIS) in SSO that was launched on Thu, 31 Oct 2024 UTC via a SOYUZ-2-1A launch vehicle from the Plesetsk Missile And Space Complex (PKMTR). Payload-class satellites include a variety of spacecraft equipped with specific instruments for various scientific and technological missions. These include communications satellites like Starlink; space stations such as the ISS; scientific satellites like the Hubble; Earth observation satellites from companies like Planet Labs, Umbra, and HawkEye 360; GPS; miniature CubeSats for education and research; and military/defense satellites.

Loading next visibility...
Identifier
61730, 2024-197A
Orbit
SSO
Country
Flag of CISCIS
Related business
Manufacturer
Arsenal
Mission
Operational Defense Imaging
Bus & Motor
BARS, AOCS
Mass
3,700 kg wet, ~3,500 kg dry
Launch date (UTC)
2024-10-31 (2 years ago)
Launch vehicle
SOYUZ-2-1A
Launch site
Plesetsk Missile And Space Complex (PKMTR)
Object type
Payload
Rocket body
Debris
Shape & HBR
Cyl + 2 Pan, 5.0 m
Radar Cross Section
20.881 m², Large (>1 m²)

Expand to show TLE details & history
Last TLE update: 12 hours ago

TLE from 12 hours ago
0 COSMOS 2579
1 61730U 24197A   26127.31877968  .00003272  00000-0  13567-3 0  9996
2 61730  97.5588  50.9269 0002490 123.9842 236.1632 15.24615888 84245
Epoch: 2026-05-07T07:39Z
TLE epoch observation values (Epoch: 2026-05-07T07:39:02.564Z)
Latitude
-0.00002°
Longitude
70.99959°
Altitude
495.984 km
Speed
7.616 km/s
True Right ascension
03h 23m 42s
True Declination
0° 00' 00"
Sunlit
Object was in daylight at epoch
Visualization orbit readout
Latitude
Unknown
Longitude
Unknown
Altitude
Unknown
Speed
Unknown
Apparent Right ascension
Unknown
Apparent Declination
Unknown
Sunlit
N/A
Visualization observer readout
Local Sidereal Time
03:24:12
Azimuth
Unknown
Elevation
Unknown
Doppler factor
Unknown
Orbital elements
Apogee altitude
490.615 km
Perigee altitude
487.195 km
Semi-major axis
6,867.042 km
Eccentricity
0.00025
Inclination
97.5588°
RAAN
50.9269°
Arg. of periapsis
123.9842°
True anomaly
236.1395°
Mean anomaly
236.1632°
Eccentric anomaly
236.15135°
Mean motion
3.81407 °/min
Orbital period
94.39 mins
BSTAR
0.00013567
Loading maneuver chart data...
Computing Atmospheric mass density...
Loading historical data...
Loading historical data...
Loading historical data...
Loading historical data...
Loading historical data...
Loading historical data...
Loading historical data...
Other satellites on launch #197 in the year 2024 (2024-10-31 UTC)

Documentation

Showing up to 5 results
|